EW5945 Weather Reports


Display with metric or nautical units.
time (UTC)temp
F
wind
direction
speed
MPH
gust
MPH
rain 1hr
in
rain 24hr
in
rain mn
in
humidity
%
barometer
mb
20260505101728 52 211 0.0 0.0 0.00 0.00 0.00 98 1017.6
20260505101228 52 211 0.0 0.0 0.00 0.00 0.00 98 1017.6
20260505100728 52 211 0.0 0.0 0.00 0.00 0.00 98 1017.3
20260505100228 52 213 0.0 0.0 0.00 0.00 0.00 98 1017.3
20260505095727 52 213 0.0 0.0 0.00 0.00 0.00 98 1017.3
20260505095228 52 211 0.0 0.0 0.00 0.00 0.00 97 1017.3
20260505094727 52 210 0.0 0.0 0.00 0.00 0.00 97 1016.9
20260505094227 52 211 0.0 0.0 0.00 0.00 0.00 97 1016.9
20260505093727 52 210 0.0 0.0 0.00 0.00 0.00 97 1016.9
20260505093227 52 211 0.0 0.0 0.00 0.00 0.00 97 1016.9
20260505092730 52 211 0.0 0.0 0.00 0.00 0.00 97 1016.9
20260505092227 52 208 0.0 0.0 0.00 0.00 0.00 97 1016.9
20260505091727 52 208 0.0 0.0 0.00 0.00 0.00 97 1016.9
20260505091228 52 211 0.0 0.0 0.00 0.00 0.00 97 1016.9
20260505090729 52 210 0.0 0.0 0.00 0.00 0.00 97 1016.9
20260505085728 53 213 0.0 0.0 0.00 0.00 0.00 97 1016.9
20260505085227 53 210 0.0 0.0 0.00 0.00 0.00 97 1016.9
20260505084727 53 206 0.0 0.0 0.00 0.00 0.00 97 1016.9
20260505084227 53 213 0.0 0.0 0.00 0.00 0.00 96 1016.9
20260505083727 53 214 0.0 0.0 0.00 0.00 0.00 96 1016.9
20260505083227 53 210 0.0 0.0 0.00 0.00 0.00 96 1016.9
20260505082727 53 210 0.0 0.0 0.00 0.00 0.00 96 1016.9
20260505082230 53 214 0.0 0.0 0.00 0.00 0.00 96 1016.9
20260505081730 53 213 0.0 0.0 0.00 0.00 0.00 96 1016.9
20260505081229 53 213 0.0 0.0 0.00 0.00 0.00 96 1016.9
20260505080730 53 213 0.0 0.0 0.00 0.00 0.00 96 1016.9
20260505080229 53 214 0.0 0.0 0.00 0.00 0.00 96 1016.9
20260505075730 54 210 0.0 0.0 0.00 0.00 0.00 95 1016.6
20260505075231 54 214 0.0 0.0 0.00 0.00 0.00 95 1016.6
20260505074730 54 216 0.0 0.0 0.00 0.00 0.00 95 1016.6
20260505074229 54 206 0.0 0.0 0.00 0.00 0.00 95 1016.6
20260505073729 54 202 0.0 0.0 0.00 0.00 0.00 95 1016.6
20260505073228 54 214 0.0 0.0 0.00 0.00 0.00 95 1016.6
20260505072730 54 216 0.0 0.0 0.00 0.00 0.00 95 1016.6
20260505072228 54 214 0.0 0.0 0.00 0.00 0.00 94 1016.6
20260505071730 55 216 0.0 0.0 0.00 0.00 0.00 94 1016.6
20260505071230 55 210 0.0 0.0 0.00 0.00 0.00 94 1016.6
20260505070731 55 210 0.0 0.0 0.00 0.00 0.00 94 1016.6
20260505070227 55 214 0.0 0.0 0.00 0.00 0.00 93 1016.6
20260505065728 55 214 0.0 0.0 0.00 0.00 0.00 93 1016.6
20260505065228 55 215 0.0 0.0 0.00 0.00 0.00 93 1016.6
20260505064729 55 215 0.0 0.0 0.00 0.00 0.00 93 1016.9
20260505064228 55 215 0.0 0.0 0.00 0.00 0.00 93 1016.6
20260505063727 55 214 0.0 0.0 0.00 0.00 0.00 92 1016.6
20260505063228 55 214 0.0 0.0 0.00 0.00 0.00 92 1016.6
20260505062734 56 215 0.0 0.0 0.00 0.00 0.00 92 1016.9
20260505062228 56 214 0.0 0.0 0.00 0.00 0.00 92 1016.6
20260505061729 56 214 0.0 0.0 0.00 0.00 0.00 92 1016.9
20260505061228 56 214 0.0 0.0 0.00 0.00 0.00 91 1016.9
20260505060729 56 214 0.0 0.0 0.00 0.00 0.00 91 1016.9
20260505060230 56 214 0.0 0.0 0.00 0.00 0.00 91 1017.3
20260505055729 57 215 0.0 0.0 0.00 0.00 0.00 90 1017.3
20260505055227 57 215 0.0 0.0 0.00 0.00 0.00 90 1017.3
20260505054728 57 214 0.0 0.0 0.00 0.00 0.00 90 1017.3
20260505054227 57 214 0.0 0.0 0.00 0.00 0.00 90 1017.3
20260505053729 58 214 0.0 0.0 0.00 0.00 0.00 90 1017.3
20260505053228 58 214 0.0 0.0 0.00 0.00 0.00 89 1017.3
20260505052727 58 214 0.0 0.0 0.00 0.00 0.00 89 1017.3
20260505052227 58 214 0.0 0.0 0.00 0.00 0.00 89 1017.3
20260505051728 59 214 0.0 4.0 0.00 0.00 0.00 88 1017.3
20260505051227 59 232 0.0 4.0 0.00 0.00 0.00 88 1017.3
20260505050729 59 221 0.0 2.0 0.00 0.00 0.00 88 1016.9
20260505050227 59 219 0.0 0.0 0.00 0.00 0.00 88 1017.3
20260505041727 60 229 0.0 2.0 0.00 0.00 0.00 87 1017.3
20260505041228 60 206 2.0 5.0 0.00 0.00 0.00 87 1017.3
20260505040728 60 210 2.0 7.0 0.00 0.00 0.00 87 1017.3
20260505040228 60 213 0.0 0.0 0.00 0.00 0.00 86 1017.3
20260505035728 61 212 0.0 5.0 0.00 0.00 0.06 86 1017.3
20260505035229 61 220 4.0 7.0 0.00 0.00 0.06 86 1017.3
20260505034727 61 228 4.0 7.0 0.00 0.00 0.06 86 1017.3
20260505034229 60 261 2.0 5.0 0.00 0.00 0.06 85 1017.3
20260505033727 61 222 2.0 5.0 0.00 0.00 0.06 84 1017.3
20260505033231 61 231 2.0 5.0 0.00 0.00 0.06 84 1017.3
20260505032728 61 210 4.0 11.0 0.00 0.00 0.06 84 1017.3
20260505032227 61 225 4.0 7.0 0.00 0.00 0.06 83 1017.3
20260505031728 61 242 2.0 7.0 0.00 0.00 0.06 83 1017.3
20260505031227 61 222 4.0 5.0 0.00 0.00 0.06 83 1017.6
20260505030729 61 213 4.0 7.0 0.00 0.00 0.06 82 1017.6
20260505030227 61 218 7.0 9.0 0.00 0.00 0.06 83 1017.6
20260505025727 61 204 2.0 5.0 0.00 0.00 0.06 82 1017.6
20260505025227 61 211 0.0 2.0 0.00 0.00 0.06 81 1017.6
20260505024727 62 207 0.0 4.0 0.00 0.00 0.06 80 1017.6
20260505024227 62 209 2.0 5.0 0.00 0.00 0.06 80 1017.6
20260505023728 62 208 4.0 9.0 0.00 0.00 0.06 80 1017.6
20260505023227 62 204 4.0 11.0 0.00 0.00 0.06 81 1017.6
20260505022730 62 210 4.0 7.0 0.00 0.00 0.06 82 1017.6
20260505022228 61 214 4.0 5.0 0.00 0.00 0.06 82 1017.6
20260505021730 61 170 2.0 5.0 0.00 0.00 0.06 81 1017.6
20260505021227 61 204 0.0 4.0 0.00 0.00 0.06 80 1017.3
20260505020728 62 218 0.0 2.0 0.00 0.00 0.06 79 1017.6
20260505020229 62 203 0.0 4.0 0.00 0.00 0.06 79 1017.6
20260505015727 62 215 0.0 4.0 0.00 0.00 0.06 78 1017.6
20260505015228 63 213 0.0 5.0 0.00 0.00 0.06 78 1017.6
20260505014730 63 208 2.0 5.0 0.00 0.00 0.06 77 1017.6
20260505014227 63 215 0.0 4.0 0.00 0.00 0.06 77 1017.6
20260505013730 63 204 2.0 5.0 0.00 0.00 0.06 77 1017.3
20260505013227 63 223 2.0 5.0 0.00 0.00 0.06 76 1017.3
20260505012728 64 205 2.0 5.0 0.00 0.00 0.06 76 1017.3
20260505012228 64 221 2.0 7.0 0.00 0.00 0.06 75 1016.9
20260505011728 64 204 2.0 7.0 0.00 0.00 0.06 75 1016.9
20260505011228 64 221 4.0 5.0 0.00 0.00 0.06 75 1016.9
20260505010728 64 217 4.0 7.0 0.00 0.00 0.06 75 1016.9
20260505010228 64 232 2.0 5.0 0.00 0.00 0.06 74 1016.9
20260505005227 65 207 4.0 11.0 0.00 0.00 0.06 73 1016.9
20260505004727 65 212 7.0 14.0 0.00 0.00 0.06 72 1016.6
20260505004228 65 219 4.0 11.0 0.00 0.00 0.06 72 1016.6
20260505003727 65 224 7.0 13.0 0.00 0.00 0.06 72 1016.6
20260505003229 66 196 4.0 9.0 0.00 0.00 0.06 71 1016.3
20260505002728 66 206 9.0 20.0 0.00 0.00 0.06 70 1016.3
20260505002228 66 213 7.0 14.0 0.00 0.00 0.06 70 1016.3
20260505001728 66 202 2.0 9.0 0.00 0.00 0.06 70 1016.3
20260505001228 66 209 4.0 7.0 0.00 0.00 0.06 69 1016.3
20260505000727 67 209 7.0 14.0 0.00 0.00 0.06 68 1016.3
20260505000227 67 208 9.0 14.0 0.00 0.00 0.06 68 1016.3
20260504235728 67 233 4.0 9.0 0.00 0.00 0.06 68 1016.3
20260504235227 67 209 4.0 14.0 0.00 0.00 0.06 67 1016.3
20260504234731 67 208 4.0 9.0 0.00 0.00 0.06 66 1015.9
20260504234230 68 225 4.0 13.0 0.00 0.00 0.06 65 1015.9
20260504233727 68 213 11.0 22.0 0.00 0.00 0.06 64 1015.9
20260504233227 68 228 11.0 18.0 0.00 0.00 0.06 64 1015.9
20260504232728 68 226 11.0 25.0 0.00 0.00 0.06 63 1015.9
20260504232231 68 222 11.0 22.0 0.00 0.00 0.06 63 1015.9
20260504231731 69 224 13.0 23.0 0.00 0.00 0.06 63 1015.9
20260504231230 69 210 9.0 14.0 0.00 0.00 0.06 62 1015.9
20260504230729 69 196 13.0 20.0 0.00 0.00 0.06 62 1015.9
20260504230228 69 199 4.0 11.0 0.00 0.00 0.06 62 1015.9
20260504225729 70 165 13.0 20.0 0.00 0.00 0.06 62 1015.9
20260504225230 70 227 13.0 23.0 0.00 0.00 0.06 61 1015.9
20260504224731 71 234 11.0 22.0 0.00 0.00 0.06 59 1015.9
20260504224228 70 236 7.0 13.0 0.00 0.00 0.06 61 1015.9
20260504223728 71 202 9.0 23.0 0.00 0.00 0.06 60 1015.9
20260504223228 71 203 7.0 13.0 0.00 0.00 0.06 60 1015.9
20260504222730 71 168 7.0 18.0 0.00 0.00 0.06 60 1015.6
20260504222229 71 224 9.0 18.0 0.00 0.00 0.06 61 1015.9
20260504221728 72 173 7.0 16.0 0.00 0.00 0.06 59 1015.9
20260504221231 72 173 7.0 18.0 0.00 0.00 0.06 60 1015.9
20260504220730 72 238 9.0 23.0 0.00 0.00 0.06 59 1015.9
20260504220228 72 208 7.0 16.0 0.00 0.00 0.06 59 1015.9
20260504215727 72 215 13.0 29.0 0.00 0.00 0.06 58 1015.9
20260504215230 72 206 13.0 18.0 0.01 0.00 0.06 56 1015.9
20260504214729 72 215 18.0 29.0 0.01 0.00 0.06 57 1015.9
20260504214227 72 252 9.0 29.0 0.01 0.00 0.06 56 1015.9
20260504213728 72 219 9.0 31.0 0.01 0.00 0.06 58 1015.9
20260504213230 72 143 9.0 16.0 0.01 0.00 0.06 59 1015.9
20260504212734 73 150 11.0 18.0 0.01 0.00 0.06 58 1015.9
20260504212230 72 218 9.0 23.0 0.01 0.00 0.06 58 1015.9
20260504211729 73 206 7.0 25.0 0.01 0.00 0.06 56 1015.9
20260504211230 73 180 9.0 25.0 0.01 0.00 0.06 58 1015.9
20260504210732 73 267 11.0 20.0 0.01 0.00 0.06 56 1015.9
20260504210229 73 189 13.0 27.0 0.01 0.00 0.06 57 1015.9
20260504205729 73 226 18.0 23.0 0.00 0.00 0.06 57 1015.9
20260504205227 73 169 11.0 29.0 0.00 0.00 0.00 55 1015.9
20260504204729 74 200 13.0 25.0 0.00 0.00 0.00 57 1015.9
20260504204228 74 201 11.0 22.0 0.00 0.00 0.00 57 1015.9
20260504203728 74 194 7.0 20.0 0.00 0.00 0.00 55 1015.9
20260504203229 74 212 7.0 9.0 0.00 0.00 0.00 56 1015.9
20260504202729 75 217 7.0 18.0 0.00 0.00 0.00 57 1015.9
20260504202228 75 222 9.0 20.0 0.00 0.00 0.00 59 1015.9
20260504201728 74 191 7.0 22.0 0.00 0.00 0.00 58 1016.3
20260504201228 74 174 7.0 18.0 0.00 0.00 0.00 59 1016.3
20260504200728 74 353 9.0 18.0 0.00 0.00 0.00 58 1016.3
20260504200230 75 229 15.0 23.0 0.00 0.00 0.00 59 1016.3
20260504195729 74 209 15.0 25.0 0.00 0.00 0.00 60 1015.9
20260504195231 75 212 13.0 16.0 0.00 0.00 0.00 59 1016.3
20260504194729 75 188 11.0 23.0 0.00 0.00 0.00 58 1015.9
20260504194230 75 212 4.0 13.0 0.00 0.00 0.00 59 1016.3
20260504193729 75 162 7.0 20.0 0.00 0.00 0.00 63 1016.3
20260504193230 75 163 4.0 9.0 0.00 0.00 0.00 60 1016.3
20260504192730 75 146 7.0 16.0 0.00 0.00 0.00 60 1016.3
20260504192229 74 206 4.0 14.0 0.00 0.00 0.00 62 1016.3
20260504191732 74 248 4.0 11.0 0.00 0.00 0.00 61 1016.6
20260504191232 74 169 4.0 11.0 0.00 0.00 0.00 60 1016.6
20260504190729 74 169 4.0 7.0 0.00 0.00 0.00 60 1016.3
20260504190229 74 170 7.0 13.0 0.00 0.00 0.00 61 1016.6
20260504185729 74 195 4.0 7.0 0.00 0.00 0.00 63 1016.6
20260504185230 75 171 2.0 5.0 0.00 0.00 0.00 59 1016.6
20260504184729 75 127 4.0 9.0 0.00 0.00 0.00 60 1016.6
20260504184227 75 160 2.0 7.0 0.00 0.00 0.00 62 1016.9
20260504183727 76 200 4.0 13.0 0.00 0.00 0.00 63 1016.9
20260504183229 75 224 2.0 7.0 0.00 0.00 0.00 60 1016.9
20260504182729 75 206 4.0 5.0 0.00 0.00 0.00 60 1016.9
20260504182229 75 208 4.0 18.0 0.00 0.00 0.00 62 1016.9
20260504181730 74 215 4.0 11.0 0.00 0.00 0.00 62 1016.9
20260504181230 74 128 4.0 11.0 0.00 0.00 0.00 62 1016.9
20260504180727 73 171 7.0 13.0 0.00 0.00 0.00 63 1016.9
20260504180229 74 238 4.0 11.0 0.00 0.00 0.00 63 1016.9
20260504175729 74 183 4.0 11.0 0.00 0.00 0.00 62 1016.9
20260504175230 75 159 7.0 14.0 0.00 0.00 0.00 64 1016.9
20260504174728 75 190 4.0 9.0 0.00 0.00 0.00 61 1016.9
20260504174230 75 119 4.0 9.0 0.00 0.00 0.00 64 1016.9
20260504173256 75 174 2.0 7.0 0.00 0.00 0.00 62 1016.9
20260504172729 74 127 4.0 7.0 0.00 0.00 0.00 62 1017.3
20260504172230 73 159 2.0 5.0 0.00 0.00 0.00 64 1017.3
20260504171729 72 196 4.0 9.0 0.00 0.00 0.00 64 1017.3
20260504171230 72 161 4.0 7.0 0.00 0.00 0.00 66 1017.3
20260504170729 74 115 4.0 7.0 0.00 0.00 0.00 62 1017.3
20260504170228 73 198 4.0 11.0 0.00 0.00 0.00 62 1017.3
20260504160229 72 213 4.0 13.0 0.00 0.00 0.00 56 1017.6
20260504150730 70 200 9.0 18.0 0.00 0.00 0.00 59 1017.9
20260504150236 70 239 11.0 14.0 0.00 0.00 0.00 58 1017.9
20260504141229 67 256 13.0 18.0 0.00 0.00 0.00 64 1018.3
20260504140729 66 221 13.0 25.0 0.00 0.00 0.00 64 1018.3
20260504140229 66 240 13.0 18.0 0.00 0.00 0.00 65 1018.3
20260504130729 62 210 7.0 9.0 0.00 0.00 0.00 78 1018.3
20260504130230 61 223 4.0 11.0 0.00 0.00 0.00 80 1018.3
20260504120231 52 207 0.0 4.0 0.00 0.00 0.00 99 1018.6
20260504110229 46 220 0.0 0.0 0.00 0.00 0.00 98 1018.6